Regional Weather Roundup
Issued by NWS Huntsville, AL

Home | Current Version | Previous Version | Text Only | Print | Product List | Glossary On
Versions: 1 2 3 4 5 6 7 8 9 10 11 12 13 14 15 16 17 18 19 20 21 22 23 24 25 26 27 28 29 30 31 32 33 34 35 36 37 38 39 40 41 42 43 44 45 46 47 48
000
ASUS44 KHUN 280910
RWRHUN

WEATHER ROUNDUP FOR THE TENNESSEE VALLEY
NATIONAL WEATHER SERVICE HUNTSVILLE AL
400 AM CDT FRI AUG 28 2015

ALZ001>004-281000-
NORTHWEST ALABAMA

CITY           SKY/WX    TMP DP  RH WIND       PRES   REMARKS
COURTLAND HCN    N/A     63 N/A N/A CALM        N/A
RUSSELLVILLE     N/A     59 N/A N/A MISG        N/A
SHOALS AIRPORT CLEAR     63  59  87 CALM      30.06S
SHOALS TVA RES   N/A     61 N/A N/A MISG        N/A
$$

ALZ005>007-016-281000-
NORTH CENTRAL ALABAMA

CITY           SKY/WX    TMP DP  RH WIND       PRES   REMARKS
CULLMAN AG STN   N/A     64 N/A N/A CALM        N/A
DECATUR AP     CLEAR     61  61 100 CALM      30.05S
HUNTSVILLE AP  CLEAR     66  61  84 CALM      30.05R
HUN NWS/UAH      N/A     68  60  76 N2          N/A
MERIDIANVILLE  CLEAR     61  57  88 CALM      30.06S
REDSTONE ARSN  CLEAR     64  62  92 VRB1      30.04S
VINEMONT AP    FAIR      64  61  88 NE3       30.07S
$$

ALZ008>010-281000-
NORTHEAST ALABAMA

CITY           SKY/WX    TMP DP  RH WIND       PRES   REMARKS
ALBERTVILLE    CLEAR     64  64 100 E5        30.05F
FORT PAYNE     CLEAR     63  59  88 N3        30.07R
SCOTTSBORO AP  CLEAR     64  63  94 CALM      30.07S
SCOTTSBORO HCN   N/A     63 N/A N/A MISG        N/A
VALLEY HEAD      N/A     63 N/A N/A MISG        N/A
$$

TNZ076-096-097-281000-
SOUTHEASTERN MIDDLE TENNESSEE

CITY           SKY/WX    TMP DP  RH WIND       PRES   REMARKS
TULLAHOMA      CLEAR     63  57  82 CALM      30.09S
WINCHESTER     CLEAR     61  59  94 CALM      30.09R
$$

...SURROUNDING SITES...

CITY           SKY/WX    TMP DP  RH WIND       PRES   REMARKS
ATLANTA        MOCLDY    71  66  84 E10       30.07R
ANNISTON       CLEAR     68  64  87 NE5       30.04S
BIRMINGHAM     CLEAR     71  65  81 N3        30.05S
CHATTANOOGA    CLEAR     68  61  78 CALM      30.09R
DALTON         CLEAR     63  63 100 CALM      30.07S
GADSDEN        CLEAR     64  59  82 CALM      30.04S
GOLDEN TRNGL   PTCLDY    63  55  77 CALM      30.01S
HALEYVILLE     FAIR      62  62 100 CALM      30.07S
JACKSON TN     CLEAR     56  54  93 CALM      30.06S FOG
MEMPHIS        CLEAR     67  60  78 VRB5      30.05R
NASHVILLE      PTCLDY    63  56  78 CALM      30.09R
OXFORD MS      FAIR      57  57 100 CALM      30.05F
ROME           CLEAR     65  63  93 N3        30.06S
SAVANNAH       PTCLDY    57  32  38 CALM      30.06S
TUPELO         CLEAR     64  59  83 N7        30.03R
TUSCALOOSA     CLEAR     68  65  90 CALM      30.01S
$$

...GULF COAST WEATHER...

CITY           SKY/WX    TMP DP  RH WIND       PRES   REMARKS
GULFPORT       CLEAR     69  61  75 N7        29.95S
PASCAGOULA     CLEAR     66  63  90 N5        29.95S
MOBILE         CLEAR     68  62  81 CALM      29.97R
GULF SHORES    MOSUNNY   67  66  97 CALM      29.93S
PENSACOLA      CLEAR     68  66  93 N3        29.92S
DESTIN         CLEAR     74  69  85 CALM      29.92F
PANAMA CITY    CLEAR     70  68  93 CALM      29.91F
APPALACHICOLA  CLEAR     71  67  87 NE6       29.92F
$$



USA.gov is the U.S. government's official web portal to all federal, state and local government web resources and services.